This demonstration page uses our WeatherBlox Daily Observations layout. Learn more.

Hourly Observations for December 11, 2017

Temp ( °F °C ) Dew Point ( °F °C ) Humidity (%) Winds ( mph kmh ) Pressure ( in mb ) Visibility ( mi km ) Precip ( " mm )
12:53 am 00:53 Clear 24 -4.4 19 -7.2 81 81 WNW 3 6 30.1 1019 10 16.0934 0 0
1:53 am 01:53 Clear 24 -4.4 21 -6.1 88 88 W 3 6 30.12 1020 10 16.0934 0 0
2:53 am 02:53 Clear 20 -6.7 18 -7.8 92 92 Calm 30.12 1020 10 16.0934 0 0
3:53 am 03:53 Clear 19 -7.2 16 -8.9 88 88 Calm 30.12 1020 10 16.0934 0 0
4:53 am 04:53 Clear 18 -7.8 17 -8.3 96 96 Calm 30.13 1020 10 16.0934 0 0
5:53 am 05:53 Clear 17 -8.3 15 -9.4 92 92 Calm 30.13 1020 10 16.0934 0 0
6:53 am 06:53 Clear 17 -8.3 15 -9.4 92 92 Calm 30.13 1020 8 12.87472 0 0
7:53 am 07:53 Mostly Cloudy 23 -5 21 -6.1 92 92 Calm 30.13 1020 9 14.48406 0 0
8:53 am 08:53 Cloudy 26 -3.3 24 -4.4 92 92 Calm 30.11 1020 9 14.48406 0 0
9:53 am 09:53 Cloudy 30 -1.1 27 -2.8 88 88 Calm 30.08 1019 9 14.48406 0 0
10:53 am 10:53 Sunny 34 1.1 26 -3.3 73 73 VRB 3 6 30.05 1018 10 16.0934 0 0
11:53 am 11:53 Sunny 40 4.4 27 -2.8 60 60 WSW 12 19 30.02 1017 10 16.0934 0 0
12:53 pm 12:53 Sunny 41 5 27 -2.8 57 57 SSW 9 15 29.95 1014 10 16.0934 0 0
1:53 pm 13:53 Sunny 42 5.6 27 -2.8 55 55 SSW 6 9 29.89 1012 10 16.0934 0 0
2:53 pm 14:53 Sunny 44 6.7 28 -2.2 53 53 VRB 3 6 29.86 1011 10 16.0934 0 0
3:53 pm 15:53 Sunny 45 7.2 28 -2.2 52 52 SSE 3 6 29.81 1010 10 16.0934 0 0
4:53 pm 16:53 Sunny 44 6.7 28 -2.2 53 53 Calm 29.77 1008 10 16.0934 0 0
5:53 pm 17:53 Clear 39 3.9 28 -2.2 65 65 Calm 29.78 1008 10 16.0934 0 0
6:53 pm 18:53 Clear 37 2.8 29 -1.7 73 73 E 5 7 29.74 1007 10 16.0934 0 0
7:53 pm 19:53 Clear 35 1.7 28 -2.2 76 76 E 3 6 29.71 1006 10 16.0934 0 0
8:53 pm 20:53 Partly Cloudy 41 5 30 -1.1 65 65 SSW 7 11 29.7 1006 10 16.0934 0 0
9:53 pm 21:53 Mostly Clear 43 6.1 29 -1.7 58 58 W 9 15 29.71 1006 10 16.0934 0 0
10:53 pm 22:53 Cloudy 44 6.7 28 -2.2 53 53 W 10 17 29.72 1006 10 16.0934 0 0
11:53 pm 23:53 Cloudy 43 6.1 28 -2.2 56 56 W 17 28 29.73 1007 10 16.0934 0 0

Powered by AerisWeather